User: anonymous   Login
Location: Vallejo Observatory
(38.1221°N, 122.2109°W)
Time: 14:26:51
(UTC-07:00)
Language:

MOS 1 Rocket - Orbit

View from above orbital plane
View from above orbital plane
View from above satellite
View from above satellite

Ground track
Ground track

The orbit data is extracted from the following two-line orbital elements,

1 17528U 87018B   15211.67215512  .00000154  00000-0  43921-4 0  9999
2 17528 097.4133 238.6975 0151479 293.5690 174.5133 14.50469779500206
Epoch (UTC): 30 July 2015 16:07:54
Eccentricity: 0.0151479
inclination: 97.4133°
perigee height: 616 km
apogee height: 832 km
right ascension of ascending node: 238.6975°
argument of perigee: 293.5690°
revolutions per day: 14.50469779
mean anomaly at epoch: 174.5133°
orbit number at epoch: 50020

The dashed part of the orbit path shows where the satellite is in the earth's shadow,  

DLR